STARLINK-1925

Last updated on Tue Nov 24 2020 00:02:02 GMT+0000 (Coordinated Universal Time)

1 46756U 20074T 20328.58334491 -.00114323 00000-0 -12570-2 0 9996 2 46756 53.0546 13.3916 0001288 57.9973 20.2906 15.62821090 1807

Satellite not in orbit